Regional Weather Roundup
Issued by NWS

Home | Current Version | Previous Version | Graphics & Text | Print | Product List | Glossary On
Versions: 1 2 3 4 5 6 7 8 9 10 11 12 13 14 15 16 17 18 19 20 21 22 23 24 25 26 27 28 29 30 31 32 33 34 35 36 37 38 39 40 41 42 43 44 45 46 47 48 49 50
000
ASUS43 KLOT 290708
RWRIL

ILLINOIS REGIONAL WEATHER ROUNDUP
NATIONAL WEATHER SERVICE CHICAGO/ROMEOVILLE IL
200 AM CDT SUN MAY 29 2016

NOTE: "FAIR" INDICATES FEW OR NO CLOUDS BELOW 12,000 FEET WITH NO
SIGNIFICANT WEATHER AND/OR OBSTRUCTIONS TO VISIBILITY.

* THESE STATIONS ARE NOT UNDER NWS QUALITY CONTROL. THEY ALSO MAY NOT
  REPORT WEATHER SUCH AS PRECIPITATION OR FOG.

ILZ001-002-007-009-015-016-024-290800-
NORTHWEST ILLINOIS

CITY           SKY/WX    TMP DP  RH WIND       PRES   REMARKS
MOLINE         CLEAR     68  59  73 SW8       29.94S
STERLING*      PTCLDY    67  63  87 VRB3      29.96S
SAVANNA*       CLOUDY    68  61  77 SW9       29.93S
$$

ILZ003-004-008-010-011-017-018-290800-
NORTH CENTRAL ILLINOIS

CITY           SKY/WX    TMP DP  RH WIND       PRES   REMARKS
ROCKFORD       CLOUDY    69  63  81 SW7       29.96S
FREEPORT*      CLEAR     64  59  85 S9        29.96S
ROCHELLE*      MOCLDY    65  63  92 S10       29.96S
DE KALB*       CLOUDY    64  63  94 SW8       29.96F
$$

ILZ005-006-012>014-019>023-290800-
NORTHEAST ILLINOIS

CITY           SKY/WX    TMP DP  RH WIND       PRES   REMARKS
CHICAGO-OHARE  CLOUDY    66  60  81 S9        29.94F
CHICAGO-MIDWAY CLOUDY    68  56  65 SW8       29.95F
AURORA         MOCLDY    65  62  90 S9        29.96F
LANSING*       MOCLDY    64  56  75 S7        29.97F
JOLIET*        CLOUDY    66  63  88 S6        29.97F
WAUKEGAN       CLOUDY    65  63  93 SW9       29.92F
DUPAGE AIRPORT CLOUDY    64  60  87 S7        29.95F
KANKAKEE*      LGT RAIN  65  59  80 SW9G17    29.99F
WHEELING       CLOUDY    66  61  84 S8        29.95F
MORRIS*        CLOUDY    65  60  85 SW7       29.96F
ROMEOVILLE*    CLOUDY    65  59  80 SW9       29.98S
NORTHERLY ISL    N/A     69  54  58 SW7         N/A
NORTHERLY ISL    N/A     69  54  58 SW7         N/A
$$

LMZ740>746-290800-
SOUTHERN LAKE MICHIGAN

STATION/POSITION SKY/WX   TEMP    WIND        PRES    VSBY  WAVE
                          AIR SEA DIR/SP/G                  HT/PER
                          (F)     (DEG/KT/KT) (MB)    (MI)  (FT/S)
SOUTHERN BUOY              54 50  170/  8/ 10 1013.7S         1/ 4
WILMETTE HARBOR            59 52  210/  4/  8   N/A           1/ 3
HARRISON CRIB              70     200/ 12/ 12   N/A
BURNHAM HARBOR             69     200/  6/ 10   N/A
CALUMET HARBOR             71     200/  9/ 13 1015.0R
BURNS HARBOR               72     230/ 13/ 20 1016.3R
MICHIGAN CITY              72     190/ 12/ 13   N/A
MICHIGAN CITY 6N           62 56  220/  8/ 10   N/A           1/ 2
ST. JOSEPH                 63 61  240/  4/  6   N/A           2/ 3
$$

ILZ025>027-034>036-040-047-049-050-058-095>099-290800-
WEST-CENTRAL ILLINOIS

CITY           SKY/WX    TMP DP  RH WIND       PRES   REMARKS
QUINCY         CLEAR     65  59  81 SW7       29.99F
GALESBURG*     PTCLDY    65  60  83 SW7       29.97F
MACOMB*        CLEAR     65  60  86 W7        30.00S
JACKSONVILLE*  CLEAR     68  64  86 CALM      30.01R
PITTSFIELD*    CLEAR     67  64  87 SW3       30.02S
$$

ILZ028>032-037-038-041>044-048-051>054-059>061-290800-
CENTRAL ILLINOIS

CITY           SKY/WX    TMP DP  RH WIND       PRES   REMARKS
PONTIAC        CLOUDY    66  64  95 S7        30.00S
BLOOMINGTON    PTCLDY    65  65 100 SW6       30.02S
DECATUR        CLEAR     69  65  86 SW7       30.01R
PEORIA         PTCLDY    65  62  90 S5        29.99S
LACON*         MOCLDY    64  61  90 S3        29.97F
LINCOLN*       CLOUDY    67  66  97 CALM      29.99F
SPRINGFIELD    CLEAR     71  66  84 SW3       30.01R
TAYLORVILLE    CLEAR     69  66  92 SE5       30.02S
$$

ILZ033-039-045-046-055>057-062-063-290800-
EAST-CENTRAL ILLINOIS

CITY           SKY/WX    TMP DP  RH WIND       PRES   REMARKS
CHAMPAIGN      MOCLDY    67  61  81 NE5       30.02S
RANTOUL*       CLOUDY    68  62  79 NW6       30.02F
MATTOON        CLEAR     70  65  84 SW7       30.02R
PARIS*         CLOUDY    67  66  95 CALM      30.04R
$$

ILZ079-100>102-290800-
SOUTHWEST ILLINOIS

CITY           SKY/WX    TMP DP  RH WIND       PRES   REMARKS
ALTON          PTCLDY    67  60  79 CALM      30.03S
BELLEVILLE     CLEAR     69  69  99 CALM      30.01S
CAHOKIA*       CLEAR     68  64  87 CALM      30.01S
SPARTA*        CLEAR     70  67  90 SW3       30.03S
$$

ILZ064>066-069>071-074>076-080>082-084>086-088>090-092>094-290800-
SOUTH-CENTRAL ILLINOIS

CITY           SKY/WX    TMP DP  RH WIND       PRES   REMARKS
CARBONDALE     CLEAR     66  64  93 CALM      30.03S
CAIRO*         CLEAR     69  66  92 S3        30.04S
EFFINGHAM*     PTCLDY    69  69  99 CALM      30.05S
MARION         PTCLDY    70  68  94 S3        30.04S
MT. VERNON     CLEAR     68  63  83 S3        30.03S
CENTRALIA*     CLEAR     71  69  92 W7        30.03R
SALEM*         PTCLDY    72  67  87 W6        30.03R
METROPOLIS*    CLEAR     67  67  98 CALM      30.04F
$$

ILZ067-068-072-073-078-083-087-091-290800-
SOUTHEAST ILLINOIS

CITY           SKY/WX    TMP DP  RH WIND       PRES   REMARKS
LAWRENCEVILLE  CLOUDY    70  68  93 S7        30.02F
FLORA*         CLEAR     69  67  93 SW5       30.03R
FAIRFIELD*     PTCLDY    68  66  93 SW3       30.02R
HARRISBURG*    CLEAR     68  67  96 CALM      30.03R
ROBINSON*      PTCLDY    67  65  94 S3        30.03S
CARMI*         PTCLDY    68  67  98 S6        30.02F
$$

ABBREVIATIONS USED IN REMARKS
   TC - TEMPERATURE IN CELSIUS
  WCI - WIND CHILL INDEX
   HX - HEAT INDEX
  VSB - VISIBILITY
$$





USA.gov is the U.S. government's official web portal to all federal, state and local government web resources and services.